Regional Weather Roundup
Issued by NWS New Orleans/Baton Rouge, LA

Home | Current Version | Previous Version | Text Only | Print | Product List | Glossary Off
Versions: 1 2 3 4 5 6 7 8 9 10 11 12 13 14 15 16 17 18 19 20 21 22 23 24 25 26 27 28 29 30 31 32 33 34 35 36 37 38 39 40 41 42 43 44 45 46 47 48 49 50

804
ASUS44 KLIX 241805
RWRLIX
NEW ORLEANS REGIONAL WEATHER ROUNDUP
NATIONAL WEATHER SERVICE NEW ORLEANS LA
100 PM CDT THU JUL 24 2014

NOTE: "FAIR" INDICATES FEW OR NO CLOUDS BELOW 12,000 FEET WITH NO
      SIGNIFICANT WEATHER AND/OR OBSTRUCTIONS TO VISIBILITY.
      SKY/WX - SKY CONDITION AND SIGNIFICANT WEATHER.
      TMP - AIR TEMPERATURE.     DP    - DEWPOINT TEMPERATURE.
      RH  - RELATIVE HUMIDITY.   PRES  - PRESSURE.
      HI  - HEAT INDEX.          WCI   - WIND CHILL INDEX.

*  THESE STATIONS ARE NOT NWS OR FAA STATIONS AND ARE NOT UNDER
   NWS QUALITY CONTROL.

LAZ038-040-048-061>063-065>067-069-241900-
SOUTHEAST LOUISIANA

CITY           SKY/WX    TMP DP  RH WIND       PRES   REMARKS
N.O. AUDUBON   NOT AVBL
N.O. INTL ARPT PTSUNNY   85  74  69 NE8       29.99F
6HR MIN TEMP:  76; 6HR MAX TEMP:  88;

N.O. LAKEFRONT MOSUNNY   85  73  67 NE5       30.00F
6HR MIN TEMP:  77; 6HR MAX TEMP:  86;

N.O. DOWNTOWN* CLOUDY    82  70  65 NE7       30.00F
6HR MIN TEMP:  79; 6HR MAX TEMP:  86;

SLIDELL        PTSUNNY   86  73  65 VRB3      29.99F
6HR MIN TEMP:  72; 6HR MAX TEMP:  86; 6HR PCP:  0.02;

BATON ROUGE    PTSUNNY   90  73  57 VRB3      30.00F HX  98
6HR MIN TEMP:  73; 6HR MAX TEMP:  90;

BOOTHVILLE     MOSUNNY   84  73  69 SW13      30.02
6HR MIN TEMP:  76; 6HR MAX TEMP:  84;

BELLE CHASSE   PTSUNNY   89  71  55 NE5       29.99F HX  95
6HR MIN TEMP:  74; 6HR MAX TEMP:  89; 6HR PCP: TRACE;

BOGALUSA*        N/A     88  69  52 CALM      30.01F
6HR MIN TEMP:  72; 6HR MAX TEMP:  89;

GALLIANO*      NOT AVBL
NEW ROADS*       N/A     85  73  66 CALM      30.01S
6HR MIN TEMP:  73; 6HR MAX TEMP:  86;

GONZALES*        N/A     87  72  59 N3        29.99F
6HR MIN TEMP:  72; 6HR MAX TEMP:  87;

HAMMOND*       MOSUNNY   90  68  48 N6        30.01F
HOUMA*         MOSUNNY   90  66  45 N6        30.00F
PORT FOURCHON* PTCLDY    81  70  69 W5        30.03F

$$

MSZ070-080>082-241900-
SOUTHERN MISSISSIPPI

CITY           SKY/WX    TMP DP  RH WIND       PRES   REMARKS
MCCOMB         PTSUNNY   87  69  54 VRB3      30.01F
6HR MIN TEMP:  72; 6HR MAX TEMP:  88;

GULFPORT       MOSUNNY   89  71  55 S7        30.00F HX  95
6HR MIN TEMP:  77; 6HR MAX TEMP:  89;

BILOXI         MOSUNNY   86  73  65 S8        30.01F
6HR MIN TEMP:  74; 6HR MAX TEMP:  86; 6HR PCP: TRACE;

PASCAGOULA     MOSUNNY   84  74  71 S9        30.01F
6HR MIN TEMP:  73; 6HR MAX TEMP:  88;

STENNIS ARPT*  MOSUNNY  N/A N/A N/A W3        30.00F

$$

COASTAL OBSERVATIONS
LAKE AND NEARSHORE STATIONS

STATION/POSITION TIME  TEMP    WIND        PRES    WAVE
                       AIR SEA DIR/SP/G            HT/PER
                 (UTC) (F)     (DEG/KT/KT) (MB)    (FT/S)
PASCAGOULA       1800   83     240/  9/ 12 1015.9
WAVELAND YACHT   1800   81     150/  8/  9 1015.5
GRAND ISLE       1800   77 84  280/  8/  9 1017.2
SOUTHWEST PASS   1800   84 85  210/  3/  7 1017.0
NEW CANAL        1800   82 82   40/  5/  6 1016.3
SHELL BEACH      1800   82 80  300/  3/  5 1015.9

OFFSHORE STATIONS

STATION/POSITION TIME  TEMP    WIND        PRES    WAVE
                       AIR SEA DIR/SP/G            HT/PER
                 (UTC) (F)     (DEG/KT/KT) (MB)    (FT/S)
64 S DAUPHIN ISL 1750   82 85  220/  2/ 10 1017.0

$$




USA.gov is the U.S. government's official web portal to all federal, state and local government web resources and services.